Satellite-Ground Cal/Val Region Overpasses Predictions

Prediction of Satellite NPP Overpassing Cal/Val Region: PacNW

Region Location: (Latitude: 10.00, Longitude: 139.50) to (Latitude: 22.70, Longitude: 165.60).

Table of predicted overpasses for the next 14.0 days since TLE Epoch: 8/26/2022
Interval Starting Time Starting Location Ending Time Ending Location
1 08/26/2022 15:12:03 ( 22.68, 157.01) 08/26/2022 15:15:38 ( 10.06, 154.01)
2 08/27/2022 02:21:09 ( 10.04, 164.53) 08/27/2022 02:24:44 ( 22.66, 161.52)
3 08/27/2022 14:53:01 ( 22.69, 161.77) 08/27/2022 14:56:37 ( 10.01, 158.75)
4 08/28/2022 03:43:37 ( 10.04, 143.91) 08/28/2022 03:47:12 ( 22.66, 140.91)
5 08/28/2022 14:35:05 ( 18.89, 165.59) 08/28/2022 14:37:36 ( 10.02, 163.51)
6 08/28/2022 16:15:30 ( 22.70, 141.16) 08/28/2022 16:17:26 ( 15.89, 139.50)
7 08/29/2022 03:24:36 ( 10.03, 148.67) 08/29/2022 03:28:11 ( 22.65, 145.67)
8 08/29/2022 15:56:29 ( 22.65, 145.90) 08/29/2022 16:00:04 ( 10.03, 142.90)
9 08/30/2022 03:05:34 ( 10.02, 153.43) 08/30/2022 03:09:10 ( 22.70, 150.41)
10 08/30/2022 15:37:28 ( 22.65, 150.66) 08/30/2022 15:41:03 ( 10.03, 147.65)
11 08/31/2022 02:46:33 ( 10.01, 158.18) 08/31/2022 02:50:09 ( 22.69, 155.17)
12 08/31/2022 15:18:26 ( 22.66, 155.41) 08/31/2022 15:22:01 ( 10.04, 152.41)
13 09/01/2022 02:27:31 ( 10.00, 162.94) 09/01/2022 02:31:07 ( 22.68, 159.92)
14 09/01/2022 14:59:25 ( 22.67, 160.17) 09/01/2022 15:03:00 ( 10.05, 157.17)
15 09/02/2022 02:11:03 ( 18.98, 165.59) 09/02/2022 02:12:06 ( 22.67, 164.68)
16 09/02/2022 03:50:01 ( 10.06, 142.31) 09/02/2022 03:53:22 ( 21.86, 139.51)
17 09/02/2022 14:40:24 ( 22.68, 164.93) 09/02/2022 14:44:00 ( 10.00, 161.91)
18 09/02/2022 16:21:54 ( 22.68, 139.56) 09/02/2022 16:21:57 ( 22.50, 139.51)
19 09/03/2022 03:30:59 ( 10.05, 147.07) 09/03/2022 03:34:34 ( 22.67, 144.06)
20 09/03/2022 16:02:52 ( 22.68, 144.31) 09/03/2022 16:06:28 ( 10.00, 141.30)
21 09/04/2022 03:11:58 ( 10.04, 151.83) 09/04/2022 03:15:33 ( 22.66, 148.82)
22 09/04/2022 15:43:51 ( 22.69, 149.07) 09/04/2022 15:47:27 ( 10.01, 146.05)
23 09/05/2022 02:52:56 ( 10.04, 156.58) 09/05/2022 02:56:31 ( 22.66, 153.58)
24 09/05/2022 15:24:49 ( 22.70, 153.83) 09/05/2022 15:28:25 ( 10.02, 150.81)
25 09/06/2022 02:33:55 ( 10.03, 161.34) 09/06/2022 02:37:30 ( 22.65, 158.34)
26 09/06/2022 15:05:49 ( 22.65, 158.57) 09/06/2022 15:09:24 ( 10.03, 155.57)
27 09/07/2022 02:15:30 ( 12.20, 165.60) 09/07/2022 02:18:28 ( 22.65, 163.10)
28 09/07/2022 03:56:23 ( 10.03, 140.72) 09/07/2022 03:57:52 ( 15.26, 139.51)
29 09/07/2022 14:46:47 ( 22.65, 163.33) 09/07/2022 14:50:22 ( 10.03, 160.33)
30 09/08/2022 03:37:22 ( 10.02, 145.48) 09/08/2022 03:40:57 ( 22.64, 142.48)
31 09/08/2022 14:30:43 ( 12.27, 165.60) 09/08/2022 14:31:21 ( 10.04, 165.08)
32 09/08/2022 16:09:16 ( 22.65, 142.71) 09/08/2022 16:12:51 ( 10.04, 139.71)
